Location: Newark
(52.2090°N, 4.1550°W)
Time: 11:37:54
(UTC+00:00)

Explorer 7 - Pass Details

Date: 19 September 2019
Orbit: 485 x 680 km, 50.3° (Epoch: 15 October)

Event Time Altitude Azimuth Distance (km) Brightness Sun altitude
Exits shadow 01:52:09 16° 92° (E) 1,716 9.5 -32.1°
Drops below altitude 10° 01:53:13 10° 90° (E) 2,113 10.1 -32.0°
Sets 01:55:37 0° 88° (E) 3,035 11.0 -31.8°
